Lexington Weather

Lexington, Massachusetts, USA

44°F
4/22/2024 8:50am 
  • Lexington Conditions: Clear
  • Temperature: 43.5°F / 6.4°CWarmer 3.6°F than last hour.
  • Dew Point: 27.1°FDecreased 2.0°Fsince last hour.
  • Relative Humidity: 52%Decreased 13.0% since last hour.
  • Wind: Calm, 10-min avg: Calm, gust: None
  • Barometer: 29.96 in Steady
  • Visibility: 10 miles
  • Rain Today: 0.00 in
  •   

Regional Weather Roundup
for Boston, MA

        
000
ASUS41 KBOX 210910
RWRBOX

REGIONAL WEATHER ROUNDUP
NATIONAL WEATHER SERVICE BOSTON/NORTON MA
500 AM EDT SUN APR 21 2024

NOTE:  "FAIR" INDICATES FEW OR NO CLOUDS BELOW 12,000 FEET WITH NO 
SIGNIFICANT WEATHER AND/OR OBSTRUCTIONS TO VISIBILITY.

MAZALL-211000-
EASTERN MASSACHUSETTS
  
CITY           SKY/WX    TMP DP  RH WIND       PRES   REMARKS
BOSTON         CLEAR     41  26  55 W10       29.94S                  
BEVERLY        CLEAR     37  26  64 NW6       29.92F                  
LAWRENCE       CLEAR     39  25  57 W5        29.95F                  
BEDFORD        CLEAR     36  25  64 W3        29.93F                  
NORWOOD        CLEAR     39  26  59 CALM      29.95S                  
MARSHFIELD     CLEAR     36  30  80 CALM      29.94S                  
PLYMOUTH       CLEAR     33  29  85 W3        29.94S                  
TAUNTON        CLEAR     32  28  85 CALM      29.95S                  
NEW BEDFORD    CLEAR     32  30  92 CALM      29.95S                  
$$

MAZALL-211000-
CAPE COD AND THE ISLANDS
  
CITY           SKY/WX    TMP DP  RH WIND       PRES   REMARKS
FALMOUTH       CLEAR     36  28  75 NW6       29.94S WCI  31          
HYANNIS        CLEAR     39  28  64 NW5       29.92F                  
CHATHAM        CLEAR     42  32  67 VRB5      29.93S                  
PROVINCETOWN   CLEAR     43  33  68 NW12      29.95R                  
NANTUCKET      CLEAR     44  31  60 NW15G21   29.94S                  
MARTHAS VNYRD  CLEAR     41  30  65 NW6       29.95S                  
$$
 
MAZALL-211000-
CENTRAL AND WESTERN MASSACHUSETTS
  
CITY           SKY/WX    TMP DP  RH WIND       PRES   REMARKS
WORCESTER      CLEAR     36  23  59 W13       29.92S WCI  27          
FITCHBURG      CLEAR     38  24  57 NW7       29.95F                  
ORANGE         CLEAR     30  26  85 SW5       29.96F WCI  25          
SPRINGFIELD    CLEAR     35  26  69 SW5       29.95S WCI  31          
WESTFIELD      CLEAR     34  27  75 CALM      29.98S                  
NORTH ADAMS    CLEAR     32  26  78 CALM      29.99S                  
PITTSFIELD     PTCLDY    32  24  72 W5        29.96R WCI  27          
$$
 
RIZALL-211000-
RHODE ISLAND
  
CITY           SKY/WX    TMP DP  RH WIND       PRES   REMARKS
PROVIDENCE     CLEAR     39  26  59 NW6       29.96S                  
NEWPORT        CLEAR     40  27  59 NW9       29.96S                  
BLOCK ISLAND   CLEAR     39  28  64 NW7       29.98S                  
SMITHFIELD     CLEAR     37  26  64 W7        29.95S WCI  32          
WESTERLY       CLEAR     38  26  62 CALM      29.97S                  
$$
 
CTZALL-211000-
CONNECTICUT
  
CITY           SKY/WX    TMP DP  RH WIND       PRES   REMARKS
BRADLEY INTL   CLEAR     38  26  62 CALM      29.99S                  
HARTFORD       CLEAR     41  27  57 NW5       29.99F                  
PLAINVILLE     FAIR      38  27  66 CALM      29.99S                  
BRIDGEPORT     PTCLDY    40  27  59 W6        30.01S                  
DANBURY        PTCLDY    35  27  72 CALM      30.02S                  
GROTON         CLEAR     40  27  59 CALM      29.98R                  
NEW HAVEN      PTCLDY    42  29  59 NW5       30.00S                  
CHESTER        PTCLDY    39  27  60 NW7       29.98S                  
MERIDEN        PTCLDY    39  27  62 CALM      30.00S                  
WILLIMANTIC    CLEAR     38  26  62 N3        29.98S                  
OXFORD         PTCLDY    36  25  64 N3        29.99S                  
$$

MEZ002-015-021-024-NHZ003-005-008-011-012-014-VTZ005-008-211000-
NORTHERN NEW ENGLAND
  
CITY           SKY/WX    TMP DP  RH WIND       PRES   REMARKS
PORTLAND ME    CLEAR     37  29  72 SW5       29.92R                  
BANGOR ME      PTCLDY    37  33  85 S3        29.85R                  
CONCORD NH     CLEAR     29  26  89 CALM      29.94F                  
MANCHESTER NH  CLEAR     36  26  67 CALM      29.93F                  
NASHUA NH      CLEAR     34  30  85 NW3       29.94F                  
PORTSMOUTH NH  CLEAR     40  26  57 W8        29.92S                  
JAFFREY NH     CLEAR     35  24  64 CALM      29.92F                  
KEENE NH       CLEAR     27  26  96 CALM      29.95F                  
BURLINGTON VT  CLEAR     36  27  69 SW3       29.93S                  
MT. WASHINGTON FOG       16  16 100 NW28        N/A  VSB 0   WCI  -4  
$$

NYZ052-076-211000-
EASTERN NEW YORK
  
CITY           SKY/WX    TMP DP  RH WIND       PRES   REMARKS
ALBANY         PTCLDY    35  26  69 S5        30.02R WCI  31          
NEW YORK CITY  PTCLDY    44  24  45 NW8       30.03R                  
$$
 
ANZALL-211000-
MARINE OBSERVATIONS
  
STATION/POSITION TIME  TEMP    WIND        PRES    VSBY  WAVE
                       AIR SEA DIR/SP/G                  HT/PER
                 (UTC) (F)     (DEG/KT/KT) (MB)    (MI)  (FT/S)
BOSTON BUOY      0850   44     300/ 14/ 16 1013.6S         2/ 3
BUZZARDS BAY     0800   44     320/ 14/ 15 1014.9F
NANTUCKET SOUND  0850   45 47  320/ 16/ 19 1013.2F         2/ 3
MASS BAY-STELLWA 0704   45 46  300/ 12/ 16 1013.9R  1 7/8  1/ 3
ISLE OF SHOALS   0800   43     280/ 14/ 16 1012.6F
S OF BLOCK IS    0856      44                N/A           4/ 4
$$

......................KEY.........................
  SKY/WX - SKY CONDITION/PRESENT WEATHER
  TMP    - TEMPERATURE IN FAHRENHEIT
  DWPT   - DEWPOINT IN FAHRENHEIT
  RH     - RELATIVE HUMIDITY IN PERCENT
  WIND   - DIRECTION AND SPEED IN MPH
  PRES   - MEAN SEA LEVEL PRESSURE IN INCHES OF HG
  WCI    - WIND CHILL INDEX
  VSB    - VISIBILITY IN MILES
  HX     - HEAT INDEX
  TC     - TEMPERATURE IN CELSIUS
  VRB    - VARIABLE WIND DIRECTION
  N/A    - NOT AVAILABLE
  
      

Other recent Regional Weather Roundups

Mon Apr 22, 8:10am EDT

Mon Apr 22, 7:10am EDT

Mon Apr 22, 6:10am EDT

Mon Apr 22, 5:10am EDT

Mon Apr 22, 4:10am EDT

Mon Apr 22, 3:10am EDT

Mon Apr 22, 2:10am EDT

Mon Apr 22, 1:10am EDT

Mon Apr 22, 12:10am EDT

Sun Apr 21, 11:10pm EDT

Sun Apr 21, 10:10pm EDT

Sun Apr 21, 9:10pm EDT

Sun Apr 21, 8:10pm EDT

Sun Apr 21, 7:10pm EDT

Sun Apr 21, 6:10pm EDT

Sun Apr 21, 5:10pm EDT

Sun Apr 21, 4:10pm EDT

Sun Apr 21, 3:10pm EDT

Sun Apr 21, 2:10pm EDT

Sun Apr 21, 1:10pm EDT

Sun Apr 21, 12:10pm EDT

Sun Apr 21, 11:10am EDT

Sun Apr 21, 10:10am EDT

Sun Apr 21, 9:10am EDT

Sun Apr 21, 8:10am EDT

Sun Apr 21, 7:10am EDT

Sun Apr 21, 6:10am EDT

Sun Apr 21, 4:10am EDT

Sun Apr 21, 3:10am EDT

Sun Apr 21, 2:10am EDT

Sun Apr 21, 1:10am EDT

Sun Apr 21, 12:10am EDT

Sat Apr 20, 11:10pm EDT

Sat Apr 20, 10:10pm EDT

Sat Apr 20, 9:10pm EDT

Sat Apr 20, 8:10pm EDT

Sat Apr 20, 7:10pm EDT

Sat Apr 20, 6:10pm EDT

Sat Apr 20, 5:10pm EDT

Sat Apr 20, 4:10pm EDT

Sat Apr 20, 3:10pm EDT

Sat Apr 20, 2:10pm EDT

Sat Apr 20, 1:10pm EDT

Sat Apr 20, 12:10pm EDT

Sat Apr 20, 11:10am EDT

Sat Apr 20, 10:10am EDT

Sat Apr 20, 9:10am EDT

Sat Apr 20, 8:10am EDT

Sat Apr 20, 7:10am EDT

Sat Apr 20, 6:10am EDT

Sat Apr 20, 5:10am EDT

Sat Apr 20, 4:10am EDT

Sat Apr 20, 3:10am EDT

Sat Apr 20, 2:10am EDT

Sat Apr 20, 1:10am EDT

Sat Apr 20, 12:10am EDT

Fri Apr 19, 11:10pm EDT

Fri Apr 19, 10:10pm EDT

Fri Apr 19, 9:10pm EDT

Fri Apr 19, 8:10pm EDT

Fri Apr 19, 7:10pm EDT

Fri Apr 19, 6:10pm EDT

Fri Apr 19, 5:10pm EDT

Fri Apr 19, 4:10pm EDT

Fri Apr 19, 3:10pm EDT

Fri Apr 19, 2:10pm EDT

Fri Apr 19, 1:10pm EDT

Fri Apr 19, 12:10pm EDT

Fri Apr 19, 11:10am EDT

Fri Apr 19, 10:10am EDT

Fri Apr 19, 9:10am EDT

Fri Apr 19, 8:10am EDT

Fri Apr 19, 7:10am EDT

Fri Apr 19, 6:10am EDT

Fri Apr 19, 5:10am EDT

Fri Apr 19, 4:10am EDT

Fri Apr 19, 3:10am EDT

Fri Apr 19, 2:10am EDT

Fri Apr 19, 1:10am EDT

Fri Apr 19, 12:10am EDT

Thu Apr 18, 11:10pm EDT

Thu Apr 18, 10:10pm EDT

Thu Apr 18, 9:10pm EDT

Thu Apr 18, 8:10pm EDT

Thu Apr 18, 7:10pm EDT

Thu Apr 18, 6:10pm EDT

Thu Apr 18, 5:10pm EDT

Thu Apr 18, 4:10pm EDT

Thu Apr 18, 3:10pm EDT

Thu Apr 18, 2:10pm EDT

Thu Apr 18, 1:10pm EDT

Thu Apr 18, 12:10pm EDT

Thu Apr 18, 11:10am EDT

Thu Apr 18, 10:10am EDT

Thu Apr 18, 9:10am EDT

Thu Apr 18, 8:10am EDT

Thu Apr 18, 7:10am EDT

Thu Apr 18, 6:10am EDT

Thu Apr 18, 5:10am EDT

Thu Apr 18, 4:10am EDT

Thu Apr 18, 3:10am EDT

Thu Apr 18, 2:10am EDT

Thu Apr 18, 1:10am EDT

Thu Apr 18, 12:10am EDT

Wed Apr 17, 11:10pm EDT

Wed Apr 17, 10:10pm EDT

Wed Apr 17, 9:10pm EDT

Wed Apr 17, 8:10pm EDT

Wed Apr 17, 7:10pm EDT

Wed Apr 17, 6:10pm EDT

Wed Apr 17, 5:10pm EDT

Wed Apr 17, 4:10pm EDT

Wed Apr 17, 3:10pm EDT

Wed Apr 17, 2:10pm EDT

Wed Apr 17, 1:10pm EDT

Wed Apr 17, 12:10pm EDT

Wed Apr 17, 11:10am EDT

Wed Apr 17, 10:10am EDT

Wed Apr 17, 9:10am EDT

Wed Apr 17, 8:10am EDT

Wed Apr 17, 7:10am EDT

Wed Apr 17, 6:10am EDT

Wed Apr 17, 5:10am EDT

Wed Apr 17, 4:10am EDT

Wed Apr 17, 3:10am EDT

Wed Apr 17, 2:10am EDT

Wed Apr 17, 1:10am EDT

Wed Apr 17, 12:10am EDT

Tue Apr 16, 11:10pm EDT

Tue Apr 16, 10:10pm EDT

Tue Apr 16, 9:10pm EDT

Tue Apr 16, 8:10pm EDT

Tue Apr 16, 7:10pm EDT

Tue Apr 16, 6:10pm EDT

Tue Apr 16, 5:10pm EDT

Tue Apr 16, 4:10pm EDT

Tue Apr 16, 3:10pm EDT

Tue Apr 16, 2:10pm EDT

Tue Apr 16, 1:10pm EDT

Tue Apr 16, 12:10pm EDT

Tue Apr 16, 11:10am EDT

Tue Apr 16, 10:10am EDT

Tue Apr 16, 9:10am EDT

Tue Apr 16, 8:10am EDT

Tue Apr 16, 7:10am EDT

Tue Apr 16, 6:10am EDT

Tue Apr 16, 5:10am EDT

Tue Apr 16, 4:10am EDT

Tue Apr 16, 3:10am EDT

Tue Apr 16, 2:10am EDT

Tue Apr 16, 1:10am EDT

Tue Apr 16, 12:10am EDT

Mon Apr 15, 11:10pm EDT

Mon Apr 15, 10:10pm EDT

Mon Apr 15, 9:10pm EDT

Mon Apr 15, 8:10pm EDT

Mon Apr 15, 7:10pm EDT

Mon Apr 15, 6:10pm EDT

Mon Apr 15, 5:10pm EDT

Mon Apr 15, 4:10pm EDT

Mon Apr 15, 3:10pm EDT

Mon Apr 15, 2:10pm EDT

Mon Apr 15, 1:10pm EDT

Mon Apr 15, 12:10pm EDT

Mon Apr 15, 11:10am EDT

Mon Apr 15, 10:10am EDT

Mon Apr 15, 9:10am EDT